Flag for Australia Weather past 2 weeks in Currie, Tasmania, Australia

Now
62 °F

Refreshingly cool.


Feels Like: 62 °F
Forecast: 58 / 65 °F
Wind: 20 mph from Southwest

Location: King Island Airport

Current Time: Jan 27, 2015 at 4:55:49 PM

Latest Report: Jan 27, 2015 at 4:00 PM


Visibility: N/A

Pressure: 30.09 "Hg

Humidity: 55%

Dew point: 46 °F

Location of CurrieLocation

Historic Weather in Currie — Graph

°F

Currie temperature yesterday

Maximum temperature yesterday: 62 °F (at 4:00 PM)
Minimum temperature yesterday: 49 °F (at 11:00 PM)
Average temperature yesterday: 57 °F

Past Weeks' High & Low Weather Summary

 TemperatureHumidityPressure
High80 °F (Jan 21, 4:00 PM)99% (Jan 13, 12:00 PM)30.10 "Hg (Jan 13, 12:00 PM)
Low44 °F (Jan 27, 5:00 AM)46% (Jan 18, 11:00 AM)29.38 "Hg (Jan 13, 7:00 PM)
Average61 °F76%29.78 "Hg
* Reported Jan 12 3:00 PM — Jan 27 3:00 PM, Currie, Weather by CustomWeather, © 2014

Note: Actual official high and low records may vary slightly from our data, if they occured in-between our weather recording intervals... More about our weather records

Advertising

Currie weather history for previous 24 hours

 ConditionsComfort  
Time TempWeatherWind HumidityBarometerVisibility
3:00 PM
Jan 27
62 °FOvercast.18 mph56%30.09 "HgN/A
2:00 PM61 °FCool.15 mph60%30.09 "HgN/A
1:00 PM58 °FCool.17 mph72%30.10 "HgN/A
12:00 PM63 °FOvercast.12 mph50%30.10 "HgN/A
11:00 AM62 °FRefreshingly cool.13 mph52%30.10 "HgN/A
10:00 AM59 °FRefreshingly cool.13 mph50%30.10 "HgN/A
9:00 AM57 °FOvercast.6 mph73%30.09 "HgN/A
7:00 AM51 °FCool.3 mph90%30.06 "HgN/A
6:00 AM47 °FOvercast.No wind95%30.05 "HgN/A
5:00 AM44 °FQuite cool.No wind94%30.05 "HgN/A
4:00 AM46 °FCool.No wind93%30.05 "HgN/A
3:00 AM44 °FQuite cool.No wind93%30.06 "HgN/A
2:00 AM46 °FCool.3 mph90%30.07 "HgN/A
1:00 AM47 °FCool.3 mph88%30.08 "HgN/A
12:00 AM49 °FPassing clouds.No wind87%30.08 "HgN/A
11:00 PM
Jan 26
49 °FCool.No wind83%30.09 "HgN/A
10:00 PM54 °FCool.3 mph69%30.09 "HgN/A
9:00 PM55 °FCool.5 mph67%30.08 "HgN/A
8:00 PM58 °FRefreshingly cool.9 mph57%30.06 "HgN/A
7:00 PM60 °FRefreshingly cool.10 mph54%30.05 "HgN/A
6:00 PM60 °FPassing clouds.10 mph52%30.04 "HgN/A
5:00 PM61 °FRefreshingly cool.13 mph56%30.05 "HgN/A
4:00 PM62 °FRefreshingly cool.13 mph57%30.05 "HgN/A
Weather by CustomWeather, © 2014

See weather overviewHow to use our weather pages